User: anonymous   Login
Location: Eferding
(48.3167°N, 14.0167°E)
Time: 02:29:10
(UTC+00:00)
Language:

H-2A R/B - Orbit

View from above orbital plane
View from above orbital plane
View from above satellite
View from above satellite

Ground track
Ground track

The orbit data is extracted from the following two-line orbital elements,

1 36105U 09066B   20017.73235362 0.00000800  00000-0  42714-4 0    00
2 36105  97.2815  25.2201 0029003 300.7549  59.2449 15.14802995    00
Epoch (UTC): 17 January 2020 17:34:35
Eccentricity: 0.0029003
inclination: 97.2815°
perigee height: 501 km
apogee height: 541 km
right ascension of ascending node: 25.2201°
argument of perigee: 300.7549°
revolutions per day: 15.14802995
mean anomaly at epoch: 59.2449°
orbit number at epoch: 0

The dashed part of the orbit path shows where the satellite is in the earth's shadow,  

DLR